This demonstration page uses our WeatherBlox Daily Observations layout. Learn more.

Left ArrowRight Arrow

Hourly Observations for May 11, 2017

Temp ( °F °C ) Dew Point ( °F °C ) Humidity (%) Winds ( mph kmh ) Pressure ( in mb ) Visibility ( mi km ) Precip ( " mm )
12:15 am 00:15 Cloudy 55 13 48 9 77 77 N 14 22 29.97 1015 10 16 0.00 0.00
12:35 am 00:35 Mostly Cloudy 55 13 48 9 77 77 N 12 19 29.97 1015 10 16 0.00 0.00
12:55 am 00:55 Mostly Clear 54 12 46 8 77 77 N 10 17 29.97 1015 10 16 0.00 0.00
1:15 am 01:15 Clear 54 12 46 8 77 77 N 8 13 30.03 1017 10 16 0.00 0.00
1:35 am 01:35 Clear 52 11 46 8 82 82 N 6 9 30.03 1017 10 16 0.00 0.00
1:55 am 01:55 Mostly Cloudy 52 11 46 8 82 82 N 7 11 30.03 1017 10 16 0.00 0.00
2:15 am 02:15 Cloudy 54 12 46 8 77 77 N 7 11 30.03 1017 10 16 0.00 0.00
2:35 am 02:35 Cloudy 54 12 46 8 77 77 N 9 15 29.97 1015 10 16 0.00 0.00
2:55 am 02:55 Mostly Cloudy 54 12 46 8 77 77 N 9 15 30.03 1017 10 16 0.00 0.00
3:15 am 03:15 Mostly Clear 54 12 46 8 77 77 N 12 19 30.03 1017 10 16 0.00 0.00
3:35 am 03:35 Mostly Cloudy 52 11 46 8 82 82 N 10 17 30.03 1017 10 16 0.00 0.00
3:55 am 03:55 Cloudy 54 12 46 8 77 77 N 12 19 30.03 1017 10 16 0.00 0.00
4:15 am 04:15 Cloudy 52 11 46 8 82 82 N 13 20 30.03 1017 10 16 0.00 0.00
4:35 am 04:35 Cloudy 54 12 46 8 77 77 NNE 12 19 30.06 1018 10 16 0.00 0.00
4:55 am 04:55 Cloudy 54 12 46 8 77 77 NNE 9 15 30.06 1018 10 16 0.00 0.00
5:15 am 05:15 Cloudy 52 11 46 8 82 82 NNE 12 19 30.06 1018 10 16 0.00 0.00
5:35 am 05:35 Cloudy 52 11 46 8 82 82 NNE 14 22 30.06 1018 10 16 0.00 0.00
5:55 am 05:55 Cloudy 52 11 46 8 82 82 N 15 24 30.06 1018 10 16 0.00 0.00
6:15 am 06:15 Cloudy 52 11 46 8 82 82 N 12 19 30.06 1018 10 16 0.00 0.00
6:35 am 06:35 Cloudy 52 11 46 8 82 82 N 12 19 30.06 1018 10 16 0.00 0.00
6:55 am 06:55 Cloudy 52 11 46 8 82 82 N 12 19 30.06 1018 10 16 0.00 0.00
7:15 am 07:15 Cloudy 54 12 46 8 77 77 N 12 19 30.06 1018 10 16 0.00 0.00
7:35 am 07:35 Cloudy 54 12 46 8 77 77 N 12 19 30.09 1019 10 16 0.00 0.00
7:55 am 07:55 Cloudy 54 12 46 8 77 77 N 12 19 30.09 1019 10 16 0.00 0.00
8:15 am 08:15 Cloudy 54 12 45 7 72 72 N 12 19 30.09 1019 10 16 0.00 0.00
8:35 am 08:35 Cloudy 54 12 45 7 72 72 N 12 19 30.09 1019 10 16 0.00 0.00
8:55 am 08:55 Cloudy 54 12 45 7 72 72 NNE 10 17 30.09 1019 10 16 0.23 5.84
9:15 am 09:15 Cloudy 55 13 45 7 67 67 NNE 10 17 30.06 1018 10 16 0.02 0.51
9:35 am 09:35 Cloudy 55 13 45 7 67 67 NNE 10 17 30.06 1018 10 16 0.12 3.05
9:55 am 09:55 Cloudy 55 13 45 7 67 67 NE 12 19 30.09 1019 10 16 0.14 3.56
10:15 am 10:15 Cloudy 55 13 45 7 67 67 NNE 12 19 30.09 1019 10 16 0.00 0.00
10:35 am 10:35 Cloudy 57 14 45 7 63 63 NE 12 19 30.09 1019 10 16 0.00 0.00
10:55 am 10:55 Cloudy 61 16 46 8 59 59 NE 18 30 30.09 1019 10 16 0.00 0.00
11:15 am 11:15 Cloudy 61 16 45 7 55 55 NE 20 31 30.09 1019 10 16 0.00 0.00
11:35 am 11:35 Cloudy 63 17 43 6 49 49 NE 16 26 30.06 1018 10 16 0.00 0.00
11:55 am 11:55 Mostly Cloudy 63 17 43 6 49 49 NE 20 31 30.03 1017 10 16 0.00 0.00
12:15 pm 12:15 Sunny 64 18 43 6 46 46 NNE 18 30 30.03 1017 10 16 0.00 0.00
12:35 pm 12:35 Sunny 64 18 41 5 43 43 NNE 17 28 30.03 1017 10 16 0.00 0.00
12:55 pm 12:55 Sunny 63 17 37 3 39 39 NNE 20 31 30.03 1017 10 16 0.00 0.00
1:15 pm 13:15 Sunny 66 19 39 4 37 37 NNE 20 31 30.03 1017 10 16 0.00 0.00
1:35 pm 13:35 Sunny 66 19 39 4 37 37 NE 20 31 30.03 1017 10 16 0.00 0.00
1:55 pm 13:55 Sunny 66 19 37 3 35 35 NNE 21 33 30.03 1017 10 16 0.00 0.00
2:15 pm 14:15 Sunny 68 20 39 4 35 35 NNE 16 26 30.03 1017 10 16 0.00 0.00
2:35 pm 14:35 Sunny 66 19 39 4 37 37 NNE 17 28 30.03 1017 10 16 0.00 0.00
2:55 pm 14:55 Sunny 66 19 37 3 35 35 NNE 14 22 30.03 1017 10 16 0.00 0.00
3:15 pm 15:15 Sunny 66 19 37 3 35 35 NNE 17 28 30.03 1017 10 16 0.00 0.00
3:35 pm 15:35 Sunny 68 20 37 3 33 33 NNE 16 26 30.03 1017 10 16 0.00 0.00
3:55 pm 15:55 Sunny 68 20 39 4 35 35 NNE 21 33 30.03 1017 10 16 0.00 0.00
4:15 pm 16:15 Sunny 68 20 37 3 33 33 N 16 26 30.03 1017 10 16 0.00 0.00
4:35 pm 16:35 Sunny 68 20 37 3 33 33 NNE 16 26 30.03 1017 10 16 0.00 0.00
4:55 pm 16:55 Sunny 68 20 39 4 35 35 NNE 15 24 30.03 1017 10 16 0.00 0.00
5:15 pm 17:15 Sunny 68 20 37 3 33 33 NNE 23 37 30.03 1017 10 16 0.00 0.00
5:35 pm 17:35 Sunny 68 20 36 2 30 30 NNE 20 31 30.03 1017 10 16 0.00 0.00
5:55 pm 17:55 Sunny 66 19 36 2 32 32 N 18 30 30.00 1016 10 16 0.00 0.00
6:15 pm 18:15 Sunny 66 19 36 2 32 32 N 18 30 30.00 1016 10 16 0.00 0.00
6:35 pm 18:35 Sunny 66 19 36 2 32 32 N 21 33 30.00 1016 10 16 0.00 0.00
6:55 pm 18:55 Sunny 66 19 36 2 32 32 N 17 28 30.00 1016 10 16 0.00 0.00
7:15 pm 19:15 Sunny 64 18 36 2 34 34 N 18 30 30.00 1016 10 16 0.00 0.00
7:35 pm 19:35 Sunny 64 18 36 2 34 34 NNE 17 28 30.03 1017 10 16 0.00 0.00
7:55 pm 19:55 Sunny 63 17 36 2 37 37 NNE 16 26 30.03 1017 10 16 0.00 0.00
8:15 pm 20:15 Sunny 61 16 36 2 39 39 NNE 15 24 30.06 1018 10 16 0.00 0.00
8:35 pm 20:35 Sunny 57 14 37 3 48 48 NNE 10 17 30.06 1018 10 16 0.00 0.00
8:55 pm 20:55 Clear 55 13 37 3 51 51 NNE 9 15 30.09 1019 10 16 0.00 0.00
9:15 pm 21:15 Clear 54 12 37 3 54 54 NNE 8 13 30.12 1020 10 16 0.00 0.00
9:35 pm 21:35 Clear 52 11 37 3 58 58 NNE 7 11 30.12 1020 10 16 0.00 0.00
9:55 pm 21:55 Clear 52 11 37 3 58 58 N 7 11 30.12 1020 10 16 0.00 0.00
10:15 pm 22:15 Clear 52 11 37 3 58 58 N 8 13 30.12 1020 10 16 0.00 0.00
10:35 pm 22:35 Clear 54 12 37 3 54 54 N 7 11 30.12 1020 10 16 0.00 0.00
10:55 pm 22:55 Clear 54 12 37 3 54 54 N 6 9 30.12 1020 10 16 0.00 0.00
11:15 pm 23:15 Clear 54 12 37 3 54 54 N 7 11 30.12 1020 10 16 0.00 0.00
11:35 pm 23:35 Clear 52 11 39 4 62 62 NW 6 9 30.15 1021 10 16 0.00 0.00
11:55 pm 23:55 Clear 50 10 39 4 67 67 NW 6 9 30.15 1021 10 16 0.00 0.00

Powered by AerisWeather